EST,Max TemperatureF,Mean TemperatureF,Min TemperatureF,Max Dew PointF,MeanDew PointF,Min DewpointF,Max Humidity, Mean Humidity, Min Humidity, Max Sea Level PressureIn, Mean Sea Level PressureIn, Min Sea Level PressureIn, Max VisibilityMiles, Mean VisibilityMiles, Min VisibilityMiles, Max Wind SpeedMPH, Mean Wind SpeedMPH, Max Gust SpeedMPH,PrecipitationIn, CloudCover, Events, WindDirDegrees
2011-11-1,55,42,28,38,32,28,100,73,46,30.38,30.35,30.32,10,9,1,6,1,9,0.00,3,Fog,315
2011-11-2,57,43,28,36,33,27,96,70,43,30.42,30.33,30.22,10,10,10,15,5,17,0.00,1,Fog,170
2011-11-3,57,46,34,43,39,33,92,76,59,30.19,30.04,29.92,10,10,10,13,4,17,0.00,5,,176
2011-11-4,50,41,32,43,30,21,86,60,34,30.35,30.12,29.96,10,10,10,21,9,26,T,4,,354
2011-11-5,49,38,26,28,25,21,92,66,39,30.51,30.45,30.35,10,10,10,12,2,15,0.00,0,,347
2011-11-6,53,38,22,29,25,21,100,66,32,30.53,30.43,30.34,10,10,8,15,4,20,0.00,0,Fog,167
2011-11-7,59,43,26,41,34,25,92,66,40,30.35,30.28,30.22,10,10,10,7,2,9,0.00,3,,173
2011-11-8,67,54,40,49,44,37,100,78,56,30.29,30.23,30.19,10,10,7,8,2,10,0.00,4,,188
2011-11-9,68,54,39,51,43,36,100,70,39,30.19,30.11,29.97,10,6,0,22,8,31,0.00,3,Fog,172
2011-11-10,66,53,40,54,47,37,93,78,63,29.98,29.83,29.70,10,10,9,20,10,26,0.03,7,Rain,234
2011-11-11,44,40,36,38,32,29,92,77,62,29.93,29.71,29.61,10,10,10,26,13,37,T,6,Rain,287
2011-11-12,52,42,32,34,29,26,92,65,38,30.07,30.00,29.94,10,10,5,21,9,26,0.01,3,Rain-Snow,176
2011-11-13,57,49,41,37,34,31,67,55,43,30.09,29.98,29.85,10,10,10,24,12,31,0.00,6,,173
2011-11-14,57,54,50,49,41,32,83,65,46,29.84,29.78,29.65,10,10,8,18,10,25,0.07,7,Rain,172
2011-11-15,61,51,41,52,47,42,93,80,66,29.95,29.82,29.65,10,10,10,16,5,22,T,8,Rain,235
2011-11-16,55,46,37,52,46,37,100,89,77,29.95,29.85,29.74,10,6,0,18,3,25,0.17,8,Fog-Rain,189
2011-11-17,48,40,32,38,30,25,77,66,55,30.00,29.89,29.81,10,10,10,25,11,36,0.00,7,,293
2011-11-18,42,36,29,28,26,22,85,70,55,30.37,30.26,30.00,10,9,2,22,8,30,T,4,Snow,258
2011-11-19,50,40,29,25,22,20,63,49,34,30.33,30.26,30.17,10,10,10,22,12,29,0.00,5,,169
2011-11-20,69,57,45,46,37,25,63,54,45,30.17,30.06,29.97,10,10,10,22,11,30,T,7,,220
2011-11-21,49,38,27,39,27,21,85,67,49,30.40,30.32,30.17,10,10,10,16,7,20,0.00,4,,360
2011-11-22,39,32,24,31,26,21,92,73,54,30.45,30.31,30.10,10,8,3,9,4,12,0.32,6,Rain,23
2011-11-23,38,35,32,37,34,30,100,95,89,30.07,29.88,29.70,10,6,2,17,7,24,1.09,8,Rain,4
2011-11-24,46,38,29,37,32,28,96,83,70,30.18,30.14,30.07,10,10,5,13,3,17,0.00,6,Fog,307
2011-11-25,53,40,26,38,34,27,100,77,54,30.16,30.10,30.05,10,10,6,12,4,14,0.00,3,Fog,177
2011-11-26,60,46,32,38,35,30,96,68,40,30.19,30.15,30.09,10,10,10,9,1,12,0.00,4,,174
2011-11-27,58,45,31,47,38,30,100,72,43,30.17,30.09,30.02,10,10,8,21,9,30,0.00,5,Fog,173
2011-11-28,60,54,48,52,49,47,100,86,72,30.10,30.06,30.01,10,10,10,20,7,25,0.00,7,,181
2011-11-29,64,55,46,59,53,46,100,89,78,30.06,29.86,29.54,10,8,2,17,5,28,0.16,8,Rain,130
2011-11-30,61,49,36,57,38,27,83,66,49,29.96,29.65,29.51,10,10,10,24,13,38,0.01,6,Rain,223